Вернуться в каталог

OSCAR 32

АктивенЛюбительское радиоPO
NORAD 19071·PAYLOAD·🇺🇸 United States

Запущен Apr 26, 1988 с Vandenberg Space Force Base

Loading…

Ближайшие Пролёты (ближайшие 24 часа)

TLE

СвежийSource: Space-Track

Эпоха: Sep 14, 2026, 15:16 UTC

1 19071U 88033B   26257.63679275  .00000031  00000-0  42780-4 0  9996
2 19071  90.3361  25.2799 0189493 119.5156 254.1709 13.27989085859279

Отслеживайте OSCAR 32 в реальном времени с AllMySat

Download on the App Store